Powrót do katalogu

AZERSPACE 2/INTELSAT 38

AktywnyŁącznośćGEO
NORAD 43632·PAYLOAD·🇦🇿 Azerbaijan

Wystrzelony Sep 25, 2018 z Guiana Space Centre

Loading…

TLE

ŚwieżeSource: CelesTrak SupGP

Epoka: Sep 14, 2026, 00:00 UTC

1 43632C 18074A   26257.00000000 -.00004076  00000+0  00000+0 0  2573
2 43632   0.0037 210.6622 0001336 309.5428 237.8899  1.00271802    11

Śledź AZERSPACE 2/INTELSAT 38 w czasie rzeczywistym z AllMySat

Download on the App Store